Олюдениз

Турция     36˚32′57″N   29˚06′54″E
темп.,
°C
ветер,
м/с
пор.,
м/с
влажн.,
%
обл.,
%
осадки,
мм/ч
давл.,
гПа
погр.,
м
16 января, сб
сб1600:00+13˚с33720 0.0 1011349
03:00+13˚с336730 0.0 1009304
06:00+13˚ссз2262100 0.0 1008306
09:00+13˚с1157100 0.0 1007269
12:00+14˚ю335599 0.0 1007425
15:00+15˚ююв5660100 0.0 10041109
18:00+15˚ююв797898 2.1 1003836
21:00+15˚зюз797086 8.4 10031214
17 января, вс
вс1700:00+13˚зсз89719 1.8 10051046
03:00+12˚сз777238 1.9 10051003
06:00+11˚ссз557199 0.3 1006879
09:00+11˚сз675978 0.4 10071235
12:00+10˚сз66610 0.0 1009959
15:00+11˚зсз77570 0.0 10081200
18:00+12˚сз109540 0.0 10101586
21:00+11˚ссз89550 0.0 10121163
18 января, пн
пн1800:00+10˚ссз810549 0.0 10141232
03:00+9˚ссз895049 0.0 10151233
06:00+8˚ссз5649100 0.0 1016893
09:00+7˚ссв334967 0.0 1016470
12:00+9˚ссз113567 0.0 1017527
15:00+9˚с224183 0.0 1015436
18:00+7˚всв5568100 0.6 1014750
21:00+7˚св3481100 2.1 1014384
19 января, вт
вт1900:00+8˚ссз446773 0.0 1015631
03:00+8˚ссз446638 0.0 1016551
06:00+7˚с44650 0.0 1016482
09:00+7˚с55610 0.0 1017458
12:00+8˚ссз55480 0.0 1017638
15:00+11˚сз65380 0.0 1015953
18:00+11˚сз66380 0.0 10161010
21:00+8˚ссв66460 0.0 1019503
20 января, ср
ср2000:00+7˚с55470 0.0 1020469
03:00+6˚с66470 0.0 1020479
06:00+6˚с67470 0.0 1021488
09:00+6˚с77440 0.0 1023467
12:00+9˚с55300 0.0 1024645
15:00+13˚ссз55280 0.0 10241010
18:00+13˚ссз55310 0.0 1025916
21:00+10˚ссв44390 0.0 1027299